Location: Ernsee
(50.8780°N, 12.0389°E)
Time: 22:46:46
(UTC+00:00)

FALCON 9 DEB - Pass Details

Date: 20 January 2020
Orbit: 429 x 444 km, 53.0° (Epoch: 18 February)

Event Time Altitude Azimuth Distance (km) Brightness Sun altitude
Exits shadow 06:07:47 12° 288° (WNW) 1,439 5.1 -8.8°
Maximum altitude 06:11:00 86° 200° (SSW) 451 3.2 -8.3°
Drops below altitude 10° 06:14:31 10° 112° (ESE) 1,564 7.7 -7.8°
Sets 06:16:38 0° 112° (ESE) 2,434 9.6 -7.5°
